Location: Strawberry
(45.6646°N, 111.9596°W)
Time: 19:51:12
(UTC+00:00)

Vanguard 1 Rocket - Pass Details

Date: 12 October 2022
Orbit: 650 x 4225 km, 34.3° (Epoch: 01 December)

Event Time Altitude Azimuth Distance (km) Brightness Sun altitude
Rises 06:30:58 0° 279° (W) 7,422 12.3 -50.6°
Reaches altitude 10° 06:37:42 10° 270° (W) 5,780 11.5 -50.9°
Enters shadow 06:43:09 19° 256° (WSW) 4,464 10.8 -51.2°
Maximum altitude 06:49:24 26° 222° (SW) 3,317 - -51.4°
Drops below altitude 10° 06:56:43 10° 170° (S) 3,489 - -51.6°
Sets 06:59:36 0° 157° (SSE) 4,087 - -51.6°
